Terminal Aerodrome Forecast
Issued by NWS Dodge City, KS

Home | Current Version | Previous Version | Graphics & Text | Print | Product List | Glossary Off
Versions: 1 2 3 4 5 6 7 8 9 10 11 12 13 14 15 16 17 18 19 20 21 22 23 24 25 26 27 28 29 30 31 32 33 34 35 36 37 38 39 40 41 42 43 44 45 46 47 48 49 50

000
FTUS43 KDDC 280749 AAD
TAFDDC
TAF AMD
KDDC 280749Z 2808/2906 13004KT P6SM SCT250
     FM280815 35020G35KT 3SM -TSRA SCT025CB BKN110
     FM280915 32015KT P6SM VCTS BKN035CB
     FM281000 32007KT P6SM SCT045
     FM282300 10008KT P6SM BKN250
     FM290100 07008KT P6SM VCTS BKN090CB=

USA.gov is the U.S. government's official web portal to all federal, state and local government web resources and services.